Location: Cheb
(50.0670°N, 12.3670°E)
Time: 05:59:59
(UTC+02:00)

ISS - Pass Details

Date: 30 March 2019
Orbit: 408 x 410 km, 51.6° (Epoch: 23 April)

Event Time Altitude Azimuth Distance (km) Brightness Sun altitude
Rises 19:13:25 0° 268° (W) 2,335 1.9 -6.3°
Reaches altitude 10° 19:15:31 10° 271° (W) 1,474 0.6 -6.6°
Maximum altitude 19:18:48 66° 355° (N) 451 -3.5 -7.1°
Drops below altitude 10° 19:22:06 10° 78° (ENE) 1,474 -1.5 -7.6°
Enters shadow 19:22:25 - 79° (E) 1,604 -1.4 -7.7°
